Regional Weather Roundup
Issued by NWS

Home | Current Version | Previous Version | Text Only | Print | Product List | Glossary Off
Versions: 1 2 3 4 5 6 7 8 9 10 11 12 13 14 15 16 17 18 19 20 21 22 23 24 25 26 27 28 29 30 31 32 33 34 35 36 37 38 39 40 41 42 43 44 45 46 47 48 49 50

000
ASUS45 KPSR 310410
RWRAZ

ARIZONA REGIONAL HOURLY WEATHER ROUNDUP
NATIONAL WEATHER SERVICE PHOENIX AZ
900 PM MST THU OCT 30 2014

NOTE: FAIR INDICATES FEW OR NO CLOUDS BELOW 12,000 FEET WITH NO
SIGNIFICANT WEATHER AND/OR OBSTRUCTIONS TO VISIBILITY.

AZZ001>003-036-310500-
NORTHWEST ARIZONA

CITY           SKY/WX    TMP DP  RH WIND       PRES   REMARKS
BULLHEAD CITY  CLOUDY    77  30  18 CALM      29.92R
KINGMAN        MOCLDY    60  32  34 SE10      30.07S
$$

AZZ004>008-015-016-018-310500-
NORTH CENTRAL ARIZONA

CITY           SKY/WX    TMP DP  RH WIND       PRES   REMARKS
GRAND CANYON   MOCLDY    39  17  41 CALM      30.28S
PRESCOTT       MOCLDY    52  33  48 S6        30.18S
FLAGSTAFF      MOCLDY    43  23  45 CALM      30.31S
PAYSON         PTCLDY    59  37  44 CALM      30.22S
PAGE           MOCLDY    59  22  24 CALM      30.17R
$$

AZZ009>014-017-310500-
NORTHEAST ARIZONA

CITY           SKY/WX    TMP DP  RH WIND       PRES   REMARKS
WINSLOW        CLOUDY    57  25  29 CALM      30.20R
SAINT JOHNS    MOCLDY    57  25  29 S8        30.23R
WINDOW ROCK    CLEAR     44  16  32 CALM      30.32R
SHOW LOW       CLOUDY    50  32  50 S7        30.31R
$$

AZZ023-310500-
GREATER PHOENIX AREA

CITY           SKY/WX    TMP DP  RH WIND       PRES   REMARKS
PHOENIX        PTCLDY    77  46  33 CALM      29.91S
BUCKEYE          N/A     68  39  34 N8        29.93R
LUKE AFB       PTCLDY    70  47  43 NW5       29.92R
DEER VALLEY    PTCLDY    76  36  23 NE6       29.93S
SCOTTSDALE     CLEAR     74  43  32 CALM      29.95S
MESA-GATEWAY   MOCLDY    72  43  35 CALM      29.95S
CHANDLER       MOCLDY    72  50  46 CALM      29.93R
$$

AZZ027-028-310500-
SOUTHWEST MARICOPA COUNTY AND PINAL COUNTY

CITY           SKY/WX    TMP DP  RH WIND       PRES   REMARKS
CASA GRANDE    CLEAR     75  39  27 CALM      29.94S
GILA BEND      PTCLDY    73  41  31 S3        29.93R
$$

AZZ503-504-507>509-310500-
SOUTHEAST ARIZONA

CITY           SKY/WX    TMP DP  RH WIND       PRES   REMARKS
TUCSON         PTCLDY    78  38  23 W3        30.03R
DAVIS-MONTHAN  CLEAR     77  36  22 SE8       30.01R
NOGALES        CLEAR     64  41  42 E6        30.11R
SIERRA VISTA   MOCLDY    63  37  39 E8        30.16S
DOUGLAS        PTCLDY    69  38  32 E13       30.14R
SAFFORD        PTCLDY    64  33  31 SE7       30.08R
$$

AZZ020-021-025-026-031-310500-
SOUTHWEST ARIZONA

CITY           SKY/WX    TMP DP  RH WIND       PRES   REMARKS
YUMA           PTCLDY    75  46  35 CALM      29.87R
$$

CAZ031-033-041-043-047-048-061-310500-
SOUTHERN CALIFORNIA

CITY           SKY/WX    TMP DP  RH WIND       PRES   REMARKS
DOWNTOWN L.A.  MOCLDY    67  60  78 CALM      29.95S
L.A. AIRPORT   PTCLDY    66  62  86 W9        29.96S
SAN DIEGO      MOCLDY    69  62  78 NW5       29.98R
BURBANK        PTCLDY    66  55  67 CALM      29.96R
ONTARIO        MOCLDY    67  56  67 W5        29.97R
RIVERSIDE      CLOUDY    67  59  75 VRB3      29.98R
PALM SPRINGS   PTCLDY    82  43  25 NW12      29.91S
EL CENTRO NAS  CLOUDY    75  41  29 CALM      29.86R
IMPERIAL       CLOUDY    74  43  32 CALM      29.86R
BLYTHE         MOCLDY    74  39  28 NW7       29.89R
NEEDLES        MOCLDY    76  28  17 W12       29.92R
$$

NVZ020-UTZ003-310500-
SOUTHERN NEVADA-UTAH

CITY           SKY/WX    TMP DP  RH WIND       PRES   REMARKS
LAS VEGAS      MOCLDY    72  28  19 SW6       29.94S
SALT LAKE CITY MOCLDY    49  40  71 SE8       30.10F
$$

NMZ009-TXZ055-310500-
NEW MEXICO-WEST TEXAS

CITY           SKY/WX    TMP DP  RH WIND       PRES   REMARKS
ALBUQUERQUE    CLEAR     60  23  24 E12       30.31R
EL PASO        PTCLDY    67  33  28 N9        30.22R
$$


........................KEY........................
SKY/WX - SKY CONDITION/WEATHER
TMP    - TEMPERATURE IN FAHRENHEIT
DP     - DEW POINT IN FAHRENHEIT
RH     - RELATIVE HUMIDITY IN PERCENT
WIND   - DIRECTION AND SPEED IN MILES PER HOUR (MPH)
VRB    - VARIABLE WIND DIRECTION
PRES   - MEAN SEA LEVEL PRESSURE IN INCHES OF MERCURY
         F - FALLING PRESSURE   R - RISING PRESSURE
         S - STEADY PRESSURE
VSB    - VISIBILITY IN MILES
HX     - HEAT INDEX IN FAHRENHEIT
WCI    - WIND CHILL INDEX IN FAHRENHEIT
TC     - TEMPERATURE IN CELSIUS WHICH IS ALSO KNOWN AS
         TEMPERATURE IN CENTIGRADE
AFB    - AIR FORCE BASE
         LUKE AFB IS LUKE AIR FORCE BASE
         DAVIS-MONTHAN IS DAVIS-MONTHAN AIR FORCE BASE
NAS    - NAVAL AIR STATION
         EL CENTRO NAS IS EL CENTRO NAVAL AIR STATION
N/A    - NOT AVAILABLE



USA.gov is the U.S. government's official web portal to all federal, state and local government web resources and services.